M I D A S
Marine Information and Data Acquisition System
Tripno 1162 of the Zeeleeuw from 2006-09-08 09:17:16 to 2006-09-08 13:34:01
Back to CruiseResearch ActivitiesStationsMapUnderway DataData graphs

EquipmentUnitsComments
TimeDGPSUTC
LatitudeDGPSDM.mWGS84
LongitudeDGPSDM.mWGS84
SpeedMeteo Stationm/sRelative wind speed
DirectionMeteo StationdegRelative wind direction
TemperatureMeteo Stationdeg CelciusAir temperature
PressureMeteo StationPaAtmospheric pressure
HumidityMeteo Station%Relative humidity
Missing or incorrect values are displayed as -999
Metereological data collected by the RV Zeeleeuw from 2006-09-08 07:01:20 to 2006-09-08 13:47:31
                                                                                    Next 1000 lines
Time Latitude Longitude Speed Direction Temperature Pressure Humidity
2006-09-08 07:01:30 51°13.596 2°56.091 2.6 260 17 102940 61
2006-09-08 07:01:35 51°13.596 2°56.089 3.6 303 17 102940 61
2006-09-08 07:01:40 51°13.597 2°56.086 3.3 248 17.1 102940 61
2006-09-08 07:01:45 51°13.597 2°56.084 2.2 305 17.1 102940 61
2006-09-08 07:01:50 51°13.597 2°56.081 3.3 252 17.1 102940 60
2006-09-08 07:01:55 51°13.598 2°56.077 3.3 301 17.1 102940 60
2006-09-08 07:02:00 51°13.598 2°56.073 2.7 20 17.1 102930 60
2006-09-08 07:02:06 51°13.598 2°56.069 2.9 309 17.1 102930 60
2006-09-08 07:02:11 51°13.599 2°56.065 2.1 267 17.1 102940 60
2006-09-08 07:02:16 51°13.599 2°56.062 1.9 313 17.1 102940 60
2006-09-08 07:02:20 51°13.599 2°56.06 2.7 26 17.1 102940 60
2006-09-08 07:02:26 51°13.599 2°56.058 4.1 303 17.1 102940 60
2006-09-08 07:02:30 51°13.599 2°56.058 3.7 246 17.1 102940 60
2006-09-08 07:02:36 51°13.599 2°56.06 4 307 17.1 102940 60
2006-09-08 07:02:40 51°13.599 2°56.061 4.4 249 17.1 102940 60
2006-09-08 07:02:45 51°13.598 2°56.064 4.1 309 17.1 102940 60
2006-09-08 07:02:50 51°13.598 2°56.068 4.4 22 17.1 102940 60
2006-09-08 07:02:55 51°13.597 2°56.072 4.6 304 17.1 102940 60
2006-09-08 07:02:59 51°13.596 2°56.076 4.1 21 17.1 102940 60
2006-09-08 07:03:04 51°13.596 2°56.08 4.1 278 17.1 102940 60
2006-09-08 07:03:09 51°13.595 2°56.084 4.2 26 17.2 102940 60
2006-09-08 07:03:14 51°13.594 2°56.088 3 301 17.2 102940 60
2006-09-08 07:03:19 51°13.594 2°56.092 3 26 17.2 102940 60
2006-09-08 07:03:24 51°13.593 2°56.096 3.5 302 17.2 102940 60
2006-09-08 07:03:30 51°13.592 2°56.1 3.2 246 17.2 102940 60
2006-09-08 07:03:35 51°13.591 2°56.103 3 310 17.2 102940 60
2006-09-08 07:03:40 51°13.59 2°56.106 3.1 20 17.2 102940 60
2006-09-08 07:03:45 51°13.59 2°56.107 2.9 301 17.2 102940 60
2006-09-08 07:03:50 51°13.59 2°56.109 2.6 250 17.2 102940 60
2006-09-08 07:03:55 51°13.589 2°56.111 3.4 310 17.2 102940 60
2006-09-08 07:03:59 51°13.589 2°56.112 3.5 251 17.2 102940 60
2006-09-08 07:04:05 51°13.588 2°56.114 3.3 302 17.2 102940 60
2006-09-08 07:04:10 51°13.588 2°56.115 3.4 26 17.2 102940 60
2006-09-08 07:04:15 51°13.587 2°56.116 2.9 308 17.2 102940 60
2006-09-08 07:04:20 51°13.587 2°56.118 1.8 248 17.2 102940 60
2006-09-08 07:04:25 51°13.586 2°56.12 1.8 310 17.2 102940 60
2006-09-08 07:04:30 51°13.585 2°56.121 2 266 17.2 102940 60
2006-09-08 07:04:35 51°13.585 2°56.121 1.7 301 17.2 102940 60
2006-09-08 07:04:40 51°13.585 2°56.121 1.8 264 17.2 102940 60
2006-09-08 07:04:44 51°13.585 2°56.121 1.3 306 17.2 102940 60
2006-09-08 07:04:49 51°13.585 2°56.122 1.6 253 17.2 102940 60
2006-09-08 07:04:54 51°13.584 2°56.122 1.2 304 17.2 102940 60
2006-09-08 07:05:00 51°13.584 2°56.122 1.5 269 17.2 102940 60
2006-09-08 07:05:04 51°13.584 2°56.122 1 305 17.2 102940 60
2006-09-08 07:05:10 51°13.584 2°56.123 1.6 27 17.2 102940 60
2006-09-08 07:05:15 51°13.583 2°56.123 1.5 310 17.2 102940 60
2006-09-08 07:05:20 51°13.583 2°56.124 1.6 262 17.3 102940 60
2006-09-08 07:05:25 51°13.582 2°56.124 1.4 303 17.3 102940 60
2006-09-08 07:05:30 51°13.582 2°56.125 1.5 27 17.3 102940 60
2006-09-08 07:05:35 51°13.581 2°56.126 1.5 301 17.3 102940 60
2006-09-08 07:05:40 51°13.581 2°56.127 1.5 245 17.3 102940 61
2006-09-08 07:05:44 51°13.58 2°56.128 1.5 307 17.3 102940 61
2006-09-08 07:05:50 51°13.58 2°56.129 1.4 244 17.3 102940 61
2006-09-08 07:05:55 51°13.579 2°56.129 0.9 298 17.3 102940 61
2006-09-08 07:06:00 51°13.579 2°56.13 1.4 261 17.3 102940 61
2006-09-08 07:06:04 51°13.578 2°56.131 1.8 302 17.3 102940 61
2006-09-08 07:06:10 51°13.578 2°56.132 1.4 258 17.3 102940 61
2006-09-08 07:06:15 51°13.578 2°56.133 2.1 307 17.3 102940 61
2006-09-08 07:06:20 51°13.578 2°56.133 1.7 258 17.3 102940 61
2006-09-08 07:06:25 51°13.578 2°56.133 2.8 302 17.3 102940 61
2006-09-08 07:06:30 51°13.578 2°56.134 2.3 257 17.3 102940 61
2006-09-08 07:06:35 51°13.578 2°56.134 1.3 308 17.3 102940 61
2006-09-08 07:06:40 51°13.578 2°56.135 1.5 268 17.3 102940 61
2006-09-08 07:06:45 51°13.578 2°56.135 1.2 302 17.3 102940 61
2006-09-08 07:06:50 51°13.578 2°56.135 1.1 259 17.4 102940 61
2006-09-08 07:06:55 51°13.578 2°56.135 1.1 304 17.4 102940 61
2006-09-08 07:07:00 51°13.578 2°56.135 1.2 266 17.4 102940 61
2006-09-08 07:07:05 51°13.578 2°56.135 1.3 301 17.4 102940 61
2006-09-08 07:07:10 51°13.579 2°56.136 1.7 266 17.4 102940 61
2006-09-08 07:07:15 51°13.579 2°56.136 1.4 308 17.4 102940 61
2006-09-08 07:07:20 51°13.579 2°56.136 1.7 29 17.4 102940 61
2006-09-08 07:07:25 51°13.579 2°56.136 1.2 51 17.4 102940 61
2006-09-08 07:07:30 51°13.578 2°56.136 0.8 261 17.4 102940 61
2006-09-08 07:07:34 51°13.579 2°56.136 2.1 308 17.4 102940 61
2006-09-08 07:07:40 51°13.579 2°56.135 3.4 30 17.4 102940 61
2006-09-08 07:07:45 51°13.579 2°56.136 2.4 307 17.4 102940 61
2006-09-08 07:07:50 51°13.579 2°56.135 2.4 34 17.4 102940 61
2006-09-08 07:07:55 51°13.579 2°56.136 1.7 311 17.4 102940 61
2006-09-08 07:08:00 51°13.579 2°56.136 1.6 22 17.4 102940 60
2006-09-08 07:08:05 51°13.579 2°56.136 1.9 305 17.4 102940 60
2006-09-08 07:08:10 51°13.579 2°56.135 2.4 20 17.4 102950 60
2006-09-08 07:08:15 51°13.579 2°56.135 2.7 312 17.4 102950 60
2006-09-08 07:08:19 51°13.579 2°56.136 4.1 254 17.4 102940 60
2006-09-08 07:08:25 51°13.579 2°56.136 3.3 308 17.4 102940 60
2006-09-08 07:08:30 51°13.579 2°56.136 4.1 254 17.4 102940 60
2006-09-08 07:08:35 51°13.579 2°56.136 4.1 307 17.4 102940 60
2006-09-08 07:08:40 51°13.579 2°56.136 3.5 251 17.4 102950 60
2006-09-08 07:08:45 51°13.579 2°56.136 2.2 307 17.4 102950 60
2006-09-08 07:08:50 51°13.579 2°56.135 3.9 270 17.4 102950 60
2006-09-08 07:08:55 51°13.579 2°56.135 3 304 17.4 102950 60
2006-09-08 07:09:00 51°13.579 2°56.135 2 263 17.4 102950 60
2006-09-08 07:09:05 51°13.579 2°56.135 2.3 311 17.4 102950 60
2006-09-08 07:09:10 51°13.579 2°56.135 3.4 254 17.3 102940 59
2006-09-08 07:09:15 51°13.579 2°56.135 1.9 302 17.3 102940 59
2006-09-08 07:09:20 51°13.579 2°56.135 2.9 20 17.3 102940 59
2006-09-08 07:09:25 51°13.579 2°56.135 2.7 305 17.3 102940 59
2006-09-08 07:09:30 51°13.579 2°56.136 2.1 261 17.3 102940 59
2006-09-08 07:09:35 51°13.579 2°56.136 2.3 306 17.3 102940 59
2006-09-08 07:09:40 51°13.579 2°56.136 2.7 263 17.3 102950 60
2006-09-08 07:09:44 51°13.579 2°56.136 2.3 304 17.3 102950 60
2006-09-08 07:09:50 51°13.579 2°56.136 1.7 263 17.3 102950 60
2006-09-08 07:09:55 51°13.579 2°56.136 2.7 311 17.3 102950 60
2006-09-08 07:10:00 51°13.579 2°56.136 2.2 256 17.3 102950 60
2006-09-08 07:10:05 51°13.579 2°56.136 1.4 308 17.3 102950 60
2006-09-08 07:10:10 51°13.579 2°56.136 2.5 251 17.3 102950 60
2006-09-08 07:10:15 51°13.58 2°56.136 2.7 309 17.3 102950 60
2006-09-08 07:10:19 51°13.58 2°56.136 1.8 256 17.3 102950 60
2006-09-08 07:10:25 51°13.58 2°56.136 3 301 17.3 102950 60
2006-09-08 07:10:30 51°13.58 2°56.136 2.5 254 17.2 102950 60
2006-09-08 07:10:33 51°13.58 2°56.137 1.8 309 17.2 102950 60
2006-09-08 07:10:40 51°13.58 2°56.137 2.7 32 17.2 102950 60
2006-09-08 07:10:45 51°13.58 2°56.136 2.1 307 17.2 102950 60
2006-09-08 07:10:50 51°13.579 2°56.136 4.2 25 17.2 102950 60
2006-09-08 07:10:54 51°13.579 2°56.136 3.2 60 17.2 102950 60
2006-09-08 07:11:00 51°13.579 2°56.135 3.4 19 17.2 102950 60
2006-09-08 07:11:05 51°13.579 2°56.136 3.3 307 17.2 102950 60
2006-09-08 07:11:10 51°13.579 2°56.136 3.2 262 17.2 102950 59
2006-09-08 07:11:15 51°13.579 2°56.136 2.5 301 17.2 102950 59
2006-09-08 07:11:20 51°13.579 2°56.136 3.2 259 17.2 102950 59
2006-09-08 07:11:24 51°13.579 2°56.136 2.6 301 17.2 102950 59
2006-09-08 07:11:30 51°13.579 2°56.135 3.5 265 17.1 102960 59
2006-09-08 07:11:35 51°13.579 2°56.135 3.5 300 17.1 102960 59
2006-09-08 07:11:40 51°13.579 2°56.135 3.7 26 17.1 102950 59
2006-09-08 07:11:44 51°13.579 2°56.135 4.4 302 17.1 102950 59
2006-09-08 07:11:49 51°13.579 2°56.135 3.4 262 17.1 102950 59
2006-09-08 07:11:53 51°13.579 2°56.136 3.4 303 17.1 102950 59
2006-09-08 07:12:00 51°13.58 2°56.136 2.9 264 17.1 102950 59
2006-09-08 07:12:05 51°13.579 2°56.136 3.8 309 17.1 102950 59
2006-09-08 07:12:10 51°13.579 2°56.136 2.9 243 17.1 102950 60
2006-09-08 07:12:15 51°13.579 2°56.136 2.5 309 17.1 102950 60
2006-09-08 07:12:20 51°13.58 2°56.136 2.6 258 17.1 102950 60
2006-09-08 07:12:25 51°13.58 2°56.136 3.2 301 17.1 102950 60
2006-09-08 07:12:30 51°13.58 2°56.137 3.5 260 17.1 102950 60
2006-09-08 07:12:35 51°13.58 2°56.137 3.3 303 17.1 102950 60
2006-09-08 07:12:39 51°13.58 2°56.137 3.2 265 17.1 102950 60
2006-09-08 07:12:45 51°13.58 2°56.137 3.6 303 17.1 102950 60
2006-09-08 07:12:50 51°13.58 2°56.137 3.8 264 17.1 102950 60
2006-09-08 07:12:55 51°13.58 2°56.137 5 303 17.1 102950 60
2006-09-08 07:13:00 51°13.58 2°56.137 4.6 257 17 102950 60
2006-09-08 07:13:05 51°13.58 2°56.137 2.3 308 17 102950 60
2006-09-08 07:13:10 51°13.58 2°56.137 3.3 258 17 102950 60
2006-09-08 07:13:15 51°13.58 2°56.137 3 310 17 102950 60
2006-09-08 07:13:20 51°13.58 2°56.137 2.4 258 17 102960 60
2006-09-08 07:13:25 51°13.58 2°56.137 2.7 310 17 102960 60
2006-09-08 07:13:30 51°13.58 2°56.136 1.8 250 17 102950 60
2006-09-08 07:13:35 51°13.58 2°56.136 3 312 17 102950 60
2006-09-08 07:13:40 51°13.58 2°56.137 2.7 250 17 102950 60
2006-09-08 07:13:45 51°13.58 2°56.136 2.6 308 17 102950 60
2006-09-08 07:13:50 51°13.58 2°56.136 1.8 262 17 102950 61
2006-09-08 07:13:55 51°13.58 2°56.136 2 302 17 102950 61
2006-09-08 07:14:00 51°13.58 2°56.136 2.1 258 16.9 102950 61
2006-09-08 07:14:05 51°13.58 2°56.136 2.7 275 16.9 102950 61
2006-09-08 07:14:10 51°13.58 2°56.136 1.9 260 17 102950 61
2006-09-08 07:14:15 51°13.58 2°56.136 1.9 302 17 102950 61
2006-09-08 07:14:20 51°13.58 2°56.137 1.7 268 17 102950 61
2006-09-08 07:14:25 51°13.58 2°56.137 4 307 17 102950 61
2006-09-08 07:14:30 51°13.58 2°56.137 2.9 249 16.9 102950 61
2006-09-08 07:14:35 51°13.58 2°56.137 2.4 302 16.9 102950 61
2006-09-08 07:14:40 51°13.58 2°56.137 3.1 256 16.9 102950 61
2006-09-08 07:14:45 51°13.58 2°56.137 1.9 310 16.9 102950 61
2006-09-08 07:14:50 51°13.58 2°56.137 2.1 263 16.9 102950 61
2006-09-08 07:14:55 51°13.58 2°56.137 2.5 63 16.9 102950 61
2006-09-08 07:14:59 51°13.58 2°56.136 2 262 16.9 102950 61
2006-09-08 07:15:05 51°13.58 2°56.137 1.5 282 16.9 102950 61
2006-09-08 07:15:10 51°13.58 2°56.137 1.5 256 16.9 102950 61
2006-09-08 07:15:15 51°13.58 2°56.137 1.8 302 16.9 102950 61
2006-09-08 07:15:20 51°13.581 2°56.137 2.5 267 16.9 102950 61
2006-09-08 07:15:25 51°13.581 2°56.137 3.4 302 16.9 102950 61
2006-09-08 07:15:30 51°13.581 2°56.137 2.8 261 16.9 102950 61
2006-09-08 07:15:35 51°13.581 2°56.137 3.6 307 16.9 102950 61
2006-09-08 07:15:40 51°13.581 2°56.137 2.3 257 16.9 102950 61
2006-09-08 07:15:45 51°13.581 2°56.137 2 303 16.9 102950 61
2006-09-08 07:15:50 51°13.581 2°56.137 1.5 29 16.9 102950 61
2006-09-08 07:15:55 51°13.58 2°56.137 3 308 16.9 102950 61
2006-09-08 07:16:00 51°13.58 2°56.137 2.5 262 16.9 102950 61
2006-09-08 07:16:04 51°13.58 2°56.137 2.7 62 16.9 102950 61
2006-09-08 07:16:10 51°13.58 2°56.137 2.1 23 16.9 102950 61
2006-09-08 07:16:15 51°13.58 2°56.137 1.8 51 16.9 102950 61
2006-09-08 07:16:20 51°13.58 2°56.137 1.8 256 16.9 102950 61
2006-09-08 07:16:25 51°13.58 2°56.137 1.3 305 16.9 102950 61
2006-09-08 07:16:30 51°13.58 2°56.137 1.9 265 16.9 102950 61
2006-09-08 07:16:35 51°13.58 2°56.137 2.2 304 16.9 102950 61
2006-09-08 07:16:39 51°13.58 2°56.137 2.5 259 16.9 102950 61
2006-09-08 07:16:44 51°13.58 2°56.137 2.1 304 16.9 102950 61
2006-09-08 07:16:50 51°13.58 2°56.137 2.1 252 16.8 102950 62
2006-09-08 07:16:55 51°13.58 2°56.137 2.1 308 16.8 102950 62
2006-09-08 07:17:00 51°13.58 2°56.137 2.2 263 16.9 102950 62
2006-09-08 07:17:05 51°13.58 2°56.137 2.7 285 16.9 102950 62
2006-09-08 07:17:10 51°13.58 2°56.137 3.9 259 16.9 102950 62
2006-09-08 07:17:15 51°13.58 2°56.137 2.6 301 16.9 102950 62
2006-09-08 07:17:20 51°13.58 2°56.137 3.2 258 16.9 102950 62
2006-09-08 07:17:24 51°13.58 2°56.137 3.2 311 16.9 102950 62
2006-09-08 07:17:30 51°13.58 2°56.137 2.8 270 16.9 102950 62
2006-09-08 07:17:35 51°13.58 2°56.137 2.1 302 16.9 102950 62
2006-09-08 07:17:40 51°13.58 2°56.137 2.2 269 16.9 102950 62
2006-09-08 07:17:45 51°13.58 2°56.137 2.6 307 16.9 102950 62
2006-09-08 07:17:50 51°13.58 2°56.137 2.4 251 16.9 102950 62
2006-09-08 07:17:55 51°13.58 2°56.137 2.4 307 16.9 102950 62
2006-09-08 07:18:00 51°13.58 2°56.137 2.8 264 16.9 102950 62
2006-09-08 07:18:04 51°13.58 2°56.137 1.9 309 16.9 102950 62
2006-09-08 07:18:10 51°13.58 2°56.136 1.9 270 16.8 102950 62
2006-09-08 07:18:15 51°13.58 2°56.136 1.9 310 16.8 102950 62
2006-09-08 07:18:20 51°13.58 2°56.136 1.8 261 16.8 102950 62
2006-09-08 07:18:24 51°13.58 2°56.136 2.6 311 16.8 102950 62
2006-09-08 07:18:30 51°13.58 2°56.136 3.1 262 16.8 102950 62
2006-09-08 07:18:35 51°13.58 2°56.136 5.8 309 16.8 102950 62
2006-09-08 07:18:40 51°13.58 2°56.136 5.7 259 16.8 102950 62
2006-09-08 07:18:45 51°13.58 2°56.136 4.9 309 16.8 102950 62
2006-09-08 07:18:50 51°13.58 2°56.136 3.9 263 16.8 102950 62
2006-09-08 07:18:55 51°13.58 2°56.136 4.6 303 16.8 102950 62
2006-09-08 07:19:00 51°13.58 2°56.136 4.7 258 16.8 102950 62
2006-09-08 07:19:05 51°13.58 2°56.136 3.9 285 16.8 102950 62
2006-09-08 07:19:10 51°13.58 2°56.136 4.7 263 16.8 102950 62
2006-09-08 07:19:15 51°13.58 2°56.136 4.8 56 16.8 102950 62
2006-09-08 07:19:20 51°13.58 2°56.136 3.2 270 16.8 102960 62
2006-09-08 07:19:25 51°13.58 2°56.136 4.1 304 16.8 102960 62
2006-09-08 07:19:30 51°13.58 2°56.136 4.1 264 16.8 102950 62
2006-09-08 07:19:35 51°13.58 2°56.136 3.5 301 16.8 102950 62
2006-09-08 07:19:40 51°13.58 2°56.136 5.5 259 16.8 102960 62
2006-09-08 07:19:44 51°13.58 2°56.136 3.2 308 16.8 102960 62
2006-09-08 07:19:50 51°13.58 2°56.136 3.7 267 16.8 102950 62
2006-09-08 07:19:55 51°13.58 2°56.136 4 304 16.8 102950 62
2006-09-08 07:20:00 51°13.58 2°56.136 2.8 265 16.8 102950 62
2006-09-08 07:20:05 51°13.58 2°56.136 3.3 310 16.8 102950 62
2006-09-08 07:20:10 51°13.58 2°56.136 3 254 16.8 102960 62
2006-09-08 07:20:15 51°13.58 2°56.136 3.9 304 16.8 102960 62
2006-09-08 07:20:20 51°13.58 2°56.136 3.4 262 16.8 102950 62
2006-09-08 07:20:24 51°13.58 2°56.136 4.6 301 16.8 102950 62
2006-09-08 07:20:30 51°13.58 2°56.136 3.6 26 16.8 102960 62
2006-09-08 07:20:34 51°13.58 2°56.136 3.6 312 16.8 102960 62
2006-09-08 07:20:39 51°13.58 2°56.136 3 264 16.8 102950 63
2006-09-08 07:20:45 51°13.58 2°56.136 2.6 307 16.8 102950 63
2006-09-08 07:20:50 51°13.58 2°56.136 3.7 27 16.8 102950 62
2006-09-08 07:20:55 51°13.58 2°56.136 2.9 310 16.8 102950 62
2006-09-08 07:21:00 51°13.58 2°56.136 3.9 269 16.8 102960 62
2006-09-08 07:21:04 51°13.58 2°56.136 2.7 278 16.8 102960 62
2006-09-08 07:21:10 51°13.58 2°56.136 2.5 266 16.8 102950 62
2006-09-08 07:21:15 51°13.58 2°56.136 3.2 306 16.8 102950 62
2006-09-08 07:21:20 51°13.58 2°56.136 3.2 263 16.8 102960 62
2006-09-08 07:21:25 51°13.58 2°56.136 2.5 263 16.8 102960 62
2006-09-08 07:21:29 51°13.58 2°56.136 3.5 266 16.7 102960 63
2006-09-08 07:21:35 51°13.58 2°56.136 3.3 306 16.7 102960 63
2006-09-08 07:21:40 51°13.58 2°56.136 3 252 16.8 102950 62
2006-09-08 07:21:44 51°13.58 2°56.136 3 301 16.8 102950 62
2006-09-08 07:21:50 51°13.58 2°56.136 4.3 252 16.8 102950 62
2006-09-08 07:21:55 51°13.58 2°56.136 4.1 307 16.8 102950 62
2006-09-08 07:22:00 51°13.58 2°56.136 3.2 254 16.7 102960 62
2006-09-08 07:22:05 51°13.58 2°56.136 2.6 302 16.7 102960 62
2006-09-08 07:22:10 51°13.58 2°56.136 2.3 261 16.8 102950 62
2006-09-08 07:22:15 51°13.58 2°56.136 2.2 57 16.8 102950 62
2006-09-08 07:22:20 51°13.58 2°56.136 2.8 22 16.7 102950 62
2006-09-08 07:22:25 51°13.58 2°56.136 2 298 16.7 102950 62
2006-09-08 07:22:30 51°13.581 2°56.136 2.5 253 16.7 102950 62
2006-09-08 07:22:35 51°13.58 2°56.136 2.5 306 16.7 102950 62
2006-09-08 07:22:40 51°13.58 2°56.136 2.4 269 16.7 102950 62
2006-09-08 07:22:45 51°13.58 2°56.136 3.3 60 16.7 102950 62
2006-09-08 07:22:50 51°13.58 2°56.136 1.7 28 16.7 102950 63
2006-09-08 07:22:55 51°13.58 2°56.136 2.3 304 16.7 102950 63
2006-09-08 07:23:00 51°13.58 2°56.137 2.3 264 16.7 102960 63
2006-09-08 07:23:05 51°13.58 2°56.137 4 285 16.7 102960 63
2006-09-08 07:23:10 51°13.58 2°56.137 2.7 263 16.7 102950 62
2006-09-08 07:23:15 51°13.58 2°56.137 2.9 310 16.7 102950 62
2006-09-08 07:23:20 51°13.58 2°56.137 2.2 28 16.7 102950 62
2006-09-08 07:23:24 51°13.58 2°56.137 4 308 16.7 102950 62
2006-09-08 07:23:30 51°13.58 2°56.137 3.9 258 16.8 102960 62
2006-09-08 07:23:35 51°13.58 2°56.137 4.3 310 16.8 102960 62
2006-09-08 07:23:40 51°13.58 2°56.137 3.5 253 16.7 102960 62
2006-09-08 07:23:44 51°13.58 2°56.136 2.9 302 16.7 102960 62
2006-09-08 07:23:50 51°13.58 2°56.136 1.9 270 16.8 102950 62
2006-09-08 07:23:55 51°13.58 2°56.137 2.7 62 16.8 102950 62
2006-09-08 07:24:00 51°13.58 2°56.136 1.6 257 16.8 102950 62
2006-09-08 07:24:05 51°13.58 2°56.136 1.9 304 16.8 102950 62
2006-09-08 07:24:10 51°13.58 2°56.136 2 25 16.8 102950 62
2006-09-08 07:24:15 51°13.58 2°56.136 1.8 301 16.8 102950 62
2006-09-08 07:24:20 51°13.58 2°56.136 1.6 23 16.8 102960 62
2006-09-08 07:24:25 51°13.581 2°56.136 1.8 302 16.8 102960 62
2006-09-08 07:24:30 51°13.58 2°56.136 0.9 23 16.8 102950 62
2006-09-08 07:24:35 51°13.58 2°56.136 1.5 305 16.8 102950 62
2006-09-08 07:24:40 51°13.58 2°56.136 1.8 24 16.8 102950 63
2006-09-08 07:24:45 51°13.58 2°56.136 1.1 302 16.8 102950 63
2006-09-08 07:24:50 51°13.58 2°56.136 0.7 318 16.8 102950 63
2006-09-08 07:24:55 51°13.58 2°56.136 0.6 303 16.8 102950 63
2006-09-08 07:25:00 51°13.58 2°56.136 2 30 16.8 102950 63
2006-09-08 07:25:05 51°13.58 2°56.136 1.9 286 16.8 102950 63
2006-09-08 07:25:10 51°13.58 2°56.136 1.6 262 16.7 102950 63
2006-09-08 07:25:15 51°13.58 2°56.136 3.3 307 16.7 102950 63
2006-09-08 07:25:20 51°13.58 2°56.136 2.7 261 16.8 102960 63
2006-09-08 07:25:25 51°13.58 2°56.136 4.3 309 16.8 102960 63
2006-09-08 07:25:30 51°13.58 2°56.136 4.1 254 16.8 102950 63
2006-09-08 07:25:35 51°13.58 2°56.136 2 306 16.8 102950 63
2006-09-08 07:25:40 51°13.58 2°56.136 2.8 270 16.8 102950 63
2006-09-08 07:25:45 51°13.58 2°56.136 1.6 311 16.8 102950 63
2006-09-08 07:25:49 51°13.58 2°56.136 1.4 251 16.8 102950 63
2006-09-08 07:25:55 51°13.58 2°56.136 3 260 16.8 102950 63
2006-09-08 07:26:00 51°13.58 2°56.136 3.4 251 16.8 102950 62
2006-09-08 07:26:05 51°13.58 2°56.136 2.4 302 16.8 102950 62
2006-09-08 07:26:10 51°13.58 2°56.136 3.4 24 16.8 102960 62
2006-09-08 07:26:15 51°13.58 2°56.136 2.9 300 16.8 102960 62
2006-09-08 07:26:20 51°13.58 2°56.136 2.5 30 16.8 102960 62
2006-09-08 07:26:24 51°13.58 2°56.136 2.3 302 16.8 102960 62
2006-09-08 07:26:30 51°13.58 2°56.136 1.9 250 16.8 102960 62
2006-09-08 07:26:35 51°13.58 2°56.136 2.7 308 16.8 102960 62
2006-09-08 07:26:40 51°13.58 2°56.136 2 249 16.8 102950 62
2006-09-08 07:26:44 51°13.58 2°56.136 2 54 16.8 102950 62
2006-09-08 07:26:50 51°13.58 2°56.137 1.2 29 16.8 102960 62
2006-09-08 07:26:55 51°13.58 2°56.137 1.2 310 16.8 102960 62
2006-09-08 07:27:00 51°13.58 2°56.137 1.4 261 16.8 102950 62
2006-09-08 07:27:05 51°13.58 2°56.137 1 79 16.8 102950 62
2006-09-08 07:27:10 51°13.58 2°56.137 1 263 16.8 102960 62
2006-09-08 07:27:15 51°13.58 2°56.137 2.1 300 16.8 102960 62
2006-09-08 07:27:20 51°13.58 2°56.137 2.7 263 16.8 102950 62
2006-09-08 07:27:25 51°13.58 2°56.136 2.6 309 16.8 102950 62
2006-09-08 07:27:30 51°13.58 2°56.136 2.9 264 16.8 102950 62
2006-09-08 07:27:35 51°13.58 2°56.136 2.3 307 16.8 102950 62
2006-09-08 07:27:40 51°13.58 2°56.136 2 266 16.8 102950 62
2006-09-08 07:27:45 51°13.58 2°56.136 2.4 61 16.8 102950 62
2006-09-08 07:27:50 51°13.58 2°56.136 2.7 25 16.8 102960 62
2006-09-08 07:27:55 51°13.58 2°56.136 2.2 52 16.8 102960 62
2006-09-08 07:28:00 51°13.58 2°56.136 2.3 265 16.8 102960 62
2006-09-08 07:28:04 51°13.58 2°56.136 2.7 284 16.8 102960 62
2006-09-08 07:28:09 51°13.58 2°56.136 1.8 270 16.8 102960 62
2006-09-08 07:28:15 51°13.58 2°56.136 2.9 56 16.8 102960 62
2006-09-08 07:28:20 51°13.58 2°56.136 2.4 29 16.8 102950 62
2006-09-08 07:28:25 51°13.581 2°56.136 1.9 55 16.8 102950 62
2006-09-08 07:28:30 51°13.581 2°56.136 2.6 266 16.8 102950 62
2006-09-08 07:28:35 51°13.581 2°56.136 2.3 310 16.8 102950 62
2006-09-08 07:28:40 51°13.581 2°56.136 1.9 263 16.8 102950 62
2006-09-08 07:28:45 51°13.581 2°56.136 2.4 302 16.8 102950 62
2006-09-08 07:28:50 51°13.581 2°56.136 2 267 16.8 102950 62
2006-09-08 07:28:55 51°13.581 2°56.136 1.7 309 16.8 102950 62
2006-09-08 07:29:00 51°13.581 2°56.136 2.4 267 16.8 102960 62
2006-09-08 07:29:04 51°13.581 2°56.136 1.8 309 16.8 102960 62
2006-09-08 07:29:10 51°13.581 2°56.136 2.1 262 16.8 102950 62
2006-09-08 07:29:15 51°13.581 2°56.136 2.1 302 16.8 102950 62
2006-09-08 07:29:20 51°13.581 2°56.136 2.1 249 16.8 102950 62
2006-09-08 07:29:24 51°13.581 2°56.136 1.3 302 16.8 102950 62
2006-09-08 07:29:30 51°13.58 2°56.136 1.4 261 16.8 102950 62
2006-09-08 07:29:35 51°13.58 2°56.136 1 301 16.8 102950 62
2006-09-08 07:29:40 51°13.58 2°56.136 1.3 26 16.8 102950 62
2006-09-08 07:29:45 51°13.58 2°56.136 1.2 311 16.8 102950 62
2006-09-08 07:29:50 51°13.58 2°56.136 1.1 256 16.8 102950 62
2006-09-08 07:29:55 51°13.58 2°56.136 1.4 309 16.8 102950 62
2006-09-08 07:30:00 51°13.58 2°56.136 1.7 263 16.8 102950 62
2006-09-08 07:30:05 51°13.581 2°56.136 1.5 282 16.8 102950 62
2006-09-08 07:30:09 51°13.581 2°56.136 0.9 29 16.8 102950 62
2006-09-08 07:30:15 51°13.581 2°56.136 1.4 64 16.8 102950 62
2006-09-08 07:30:20 51°13.581 2°56.136 1.3 265 16.8 102950 62
2006-09-08 07:30:25 51°13.581 2°56.136 1.5 310 16.8 102950 62
2006-09-08 07:30:30 51°13.581 2°56.137 1.3 270 16.8 102950 63
2006-09-08 07:30:35 51°13.581 2°56.136 1.6 307 16.8 102950 63
2006-09-08 07:30:40 51°13.581 2°56.137 1.9 254 16.8 102950 63
2006-09-08 07:30:44 51°13.581 2°56.137 2 303 16.8 102950 63
2006-09-08 07:30:49 51°13.581 2°56.137 1.7 265 16.8 102950 63
2006-09-08 07:30:55 51°13.581 2°56.137 2.2 309 16.8 102950 63
2006-09-08 07:31:00 51°13.581 2°56.137 2.5 261 16.8 102950 63
2006-09-08 07:31:05 51°13.581 2°56.137 2.9 302 16.8 102950 63
2006-09-08 07:31:10 51°13.581 2°56.137 2.2 261 16.8 102950 63
2006-09-08 07:31:15 51°13.581 2°56.137 1.8 300 16.8 102950 63
2006-09-08 07:31:20 51°13.581 2°56.137 1.6 261 16.8 102950 63
2006-09-08 07:31:25 51°13.581 2°56.137 1.3 303 16.8 102950 63
2006-09-08 07:31:30 51°13.581 2°56.137 1.5 263 16.8 102950 63
2006-09-08 07:31:35 51°13.581 2°56.137 1.1 308 16.8 102950 63
2006-09-08 07:31:40 51°13.581 2°56.137 1.2 267 16.8 102950 62
2006-09-08 07:31:43 51°13.581 2°56.136 1.3 300 16.8 102950 62
2006-09-08 07:31:50 51°13.581 2°56.137 1.5 254 16.8 102950 62
2006-09-08 07:31:55 51°13.581 2°56.137 1.1 301 16.8 102950 62
2006-09-08 07:32:00 51°13.581 2°56.137 0.9 29 16.8 102950 62
2006-09-08 07:32:05 51°13.581 2°56.137 0.7 280 16.8 102950 62
2006-09-08 07:32:10 51°13.581 2°56.137 0.9 257 16.8 102950 63
2006-09-08 07:32:15 51°13.581 2°56.137 1 309 16.8 102950 63
2006-09-08 07:32:20 51°13.581 2°56.137 1 256 16.8 102950 63
2006-09-08 07:32:25 51°13.581 2°56.137 1.4 301 16.8 102950 63
2006-09-08 07:32:30 51°13.581 2°56.137 1.7 246 16.8 102950 63
2006-09-08 07:32:34 51°13.581 2°56.137 1.9 302 16.8 102950 63
2006-09-08 07:32:40 51°13.581 2°56.137 1.6 247 16.8 102960 63
2006-09-08 07:32:45 51°13.581 2°56.137 1.4 304 16.8 102960 63
2006-09-08 07:32:50 51°13.581 2°56.137 0.9 31 16.8 102950 63
2006-09-08 07:32:55 51°13.581 2°56.137 0.8 62 16.8 102950 63
2006-09-08 07:33:00 51°13.581 2°56.137 0.7 254 16.9 102960 63
2006-09-08 07:33:05 51°13.581 2°56.137 1.2 309 16.9 102960 63
2006-09-08 07:33:10 51°13.581 2°56.137 1.5 263 16.8 102960 63
2006-09-08 07:33:15 51°13.581 2°56.137 1.8 303 16.8 102960 63
2006-09-08 07:33:20 51°13.581 2°56.137 2.4 255 16.8 102960 63
2006-09-08 07:33:25 51°13.581 2°56.137 1.6 303 16.8 102960 63
2006-09-08 07:33:30 51°13.581 2°56.137 1.5 266 16.8 102950 63
2006-09-08 07:33:34 51°13.581 2°56.137 1.4 303 16.8 102950 63
2006-09-08 07:33:40 51°13.581 2°56.137 1.7 256 16.9 102960 63
2006-09-08 07:33:45 51°13.581 2°56.137 1.6 312 16.9 102960 63
2006-09-08 07:33:50 51°13.581 2°56.138 2.1 261 16.9 102960 63
2006-09-08 07:33:55 51°13.581 2°56.138 3.2 59 16.9 102960 63
2006-09-08 07:34:00 51°13.581 2°56.138 2.4 260 16.9 102960 63
2006-09-08 07:34:05 51°13.581 2°56.138 3 282 16.9 102960 63
2006-09-08 07:34:10 51°13.581 2°56.138 2.8 29 16.9 102960 63
2006-09-08 07:34:15 51°13.581 2°56.138 2.5 52 16.9 102960 63
2006-09-08 07:34:20 51°13.581 2°56.138 1.7 261 16.9 102960 63
2006-09-08 07:34:24 51°13.581 2°56.138 1.4 302 16.9 102960 63
2006-09-08 07:34:30 51°13.581 2°56.138 1.3 14 16.9 102960 63
2006-09-08 07:34:35 51°13.581 2°56.138 2 309 16.9 102960 63
2006-09-08 07:34:40 51°13.581 2°56.138 1.8 261 16.9 102960 63
2006-09-08 07:34:44 51°13.581 2°56.138 1.7 310 16.9 102960 63
2006-09-08 07:34:50 51°13.581 2°56.138 1.9 253 16.9 102960 63
2006-09-08 07:34:55 51°13.581 2°56.138 1.5 306 16.9 102960 63
2006-09-08 07:35:00 51°13.581 2°56.139 1.3 256 16.9 102960 63
2006-09-08 07:35:04 51°13.581 2°56.139 1.8 311 16.9 102960 63
2006-09-08 07:35:10 51°13.581 2°56.139 1.8 266 16.9 102960 63
2006-09-08 07:35:15 51°13.581 2°56.139 2.1 300 16.9 102960 63
2006-09-08 07:35:20 51°13.581 2°56.139 1.9 260 16.9 102960 63
2006-09-08 07:35:24 51°13.581 2°56.139 3.6 301 16.9 102960 63
2006-09-08 07:35:30 51°13.581 2°56.139 3.4 256 16.9 102960 63
2006-09-08 07:35:35 51°13.581 2°56.138 3.8 304 16.9 102960 63
2006-09-08 07:35:40 51°13.581 2°56.139 2.9 259 16.9 102960 63
2006-09-08 07:35:45 51°13.581 2°56.139 3.4 302 16.9 102960 63
2006-09-08 07:35:50 51°13.581 2°56.139 2.7 261 16.9 102960 63
2006-09-08 07:35:55 51°13.581 2°56.139 3.3 302 16.9 102960 63
2006-09-08 07:35:59 51°13.581 2°56.139 3.2 250 16.9 102960 62
2006-09-08 07:36:05 51°13.581 2°56.139 4 279 16.9 102960 62
2006-09-08 07:36:10 51°13.581 2°56.139 4.2 259 16.9 102960 62
2006-09-08 07:36:15 51°13.582 2°56.139 3.1 307 16.9 102960 62
2006-09-08 07:36:20 51°13.582 2°56.139 2.9 27 16.9 102960 62
2006-09-08 07:36:24 51°13.582 2°56.139 3.6 302 16.9 102960 62
2006-09-08 07:36:30 51°13.583 2°56.139 3.6 254 16.9 102960 62
2006-09-08 07:36:35 51°13.583 2°56.139 2 50 16.9 102960 62
2006-09-08 07:36:40 51°13.583 2°56.139 2.5 32 16.9 102960 62
2006-09-08 07:36:45 51°13.583 2°56.139 1.6 307 16.9 102960 62
2006-09-08 07:36:50 51°13.583 2°56.139 2.6 259 16.8 102960 62
2006-09-08 07:36:55 51°13.583 2°56.139 2.7 309 16.8 102960 62
2006-09-08 07:37:00 51°13.583 2°56.139 2.3 256 16.9 102960 62
2006-09-08 07:37:05 51°13.582 2°56.138 2.4 279 16.9 102960 62
2006-09-08 07:37:09 51°13.582 2°56.138 2.1 259 16.9 102960 62
2006-09-08 07:37:15 51°13.582 2°56.138 2.6 309 16.9 102960 62
2006-09-08 07:37:20 51°13.582 2°56.138 3.3 265 16.9 102960 62
2006-09-08 07:37:25 51°13.582 2°56.138 3.5 304 16.9 102960 62
2006-09-08 07:37:30 51°13.582 2°56.138 3.2 251 16.9 102960 62
2006-09-08 07:37:35 51°13.582 2°56.138 3.6 301 16.9 102960 62
2006-09-08 07:37:40 51°13.583 2°56.139 4.8 255 16.9 102960 62
2006-09-08 07:37:45 51°13.585 2°56.141 2.8 311 16.9 102960 62
2006-09-08 07:37:50 51°13.586 2°56.142 3 259 16.9 102970 62
2006-09-08 07:37:55 51°13.586 2°56.143 2.8 302 16.9 102970 62
2006-09-08 07:38:00 51°13.587 2°56.143 3.5 256 16.9 102960 62
2006-09-08 07:38:05 51°13.587 2°56.143 3.4 307 16.9 102960 62
2006-09-08 07:38:10 51°13.587 2°56.142 2.8 262 16.9 102960 62
2006-09-08 07:38:15 51°13.586 2°56.142 1.9 310 16.9 102960 62
2006-09-08 07:38:20 51°13.585 2°56.141 2.8 19 16.8 102970 61
2006-09-08 07:38:25 51°13.585 2°56.141 2 310 16.8 102970 61
2006-09-08 07:38:30 51°13.584 2°56.139 2.2 21 16.8 102960 61
2006-09-08 07:38:34 51°13.583 2°56.138 2 307 16.8 102960 61
2006-09-08 07:38:40 51°13.582 2°56.137 1.9 264 16.8 102960 62
2006-09-08 07:38:45 51°13.582 2°56.137 1.5 302 16.8 102960 62
2006-09-08 07:38:50 51°13.581 2°56.136 1.2 262 16.8 102960 62
2006-09-08 07:38:55 51°13.581 2°56.136 1.1 308 16.8 102960 62
2006-09-08 07:39:00 51°13.581 2°56.136 1 262 16.8 102960 62
2006-09-08 07:39:04 51°13.58 2°56.136 1.1 284 16.8 102960 62
2006-09-08 07:39:10 51°13.58 2°56.136 1.7 24 16.8 102960 62
2006-09-08 07:39:15 51°13.58 2°56.136 0.9 306 16.8 102960 62
2006-09-08 07:39:20 51°13.58 2°56.136 0.6 29 16.8 102960 62
2006-09-08 07:39:25 51°13.58 2°56.136 1.7 304 16.8 102960 62
2006-09-08 07:39:30 51°13.58 2°56.136 2.2 260 16.8 102960 62
2006-09-08 07:39:35 51°13.58 2°56.137 2 300 16.8 102960 62
2006-09-08 07:39:40 51°13.58 2°56.137 2.3 261 16.8 102960 62
2006-09-08 07:39:45 51°13.581 2°56.137 1.5 309 16.8 102960 62
2006-09-08 07:39:50 51°13.581 2°56.138 1.6 256 16.8 102960 62
2006-09-08 07:39:55 51°13.581 2°56.138 3.1 309 16.8 102960 62
2006-09-08 07:40:00 51°13.58 2°56.138 2.7 254 16.8 102960 62
2006-09-08 07:40:05 51°13.58 2°56.138 2.6 301 16.8 102960 62
2006-09-08 07:40:10 51°13.581 2°56.138 2.1 248 16.8 102960 62
2006-09-08 07:40:15 51°13.581 2°56.139 1.8 310 16.8 102960 62
2006-09-08 07:40:20 51°13.581 2°56.139 2.1 248 16.8 102960 62
2006-09-08 07:40:24 51°13.581 2°56.139 1.9 302 16.8 102960 62
2006-09-08 07:40:30 51°13.581 2°56.139 2.6 255 16.8 102960 62
2006-09-08 07:40:35 51°13.581 2°56.139 2.8 301 16.8 102960 62
2006-09-08 07:40:40 51°13.58 2°56.139 2 259 16.8 102960 62
2006-09-08 07:40:45 51°13.58 2°56.138 2.1 304 16.8 102960 62
2006-09-08 07:40:50 51°13.579 2°56.138 1.7 266 16.8 102960 62
2006-09-08 07:40:55 51°13.579 2°56.138 3.4 308 16.8 102960 62
2006-09-08 07:41:00 51°13.579 2°56.138 3.6 256 16.8 102960 62
2006-09-08 07:41:05 51°13.579 2°56.138 3.8 278 16.8 102960 62
2006-09-08 07:41:10 51°13.579 2°56.138 2.8 248 16.8 102960 62
2006-09-08 07:41:15 51°13.579 2°56.137 2.5 310 16.8 102960 62
2006-09-08 07:41:20 51°13.578 2°56.137 2.4 248 16.8 102960 62
2006-09-08 07:41:25 51°13.578 2°56.137 2.7 308 16.8 102960 62
2006-09-08 07:41:30 51°13.578 2°56.137 2.1 251 16.8 102960 62
2006-09-08 07:41:34 51°13.578 2°56.137 1.4 260 16.8 102960 62
2006-09-08 07:41:39 51°13.578 2°56.137 1.1 19 16.8 102960 62
2006-09-08 07:41:45 51°13.578 2°56.138 0.7 54 16.8 102960 62
2006-09-08 07:41:50 51°13.578 2°56.138 1.2 19 16.8 102960 62
2006-09-08 07:41:55 51°13.578 2°56.137 2 309 16.8 102960 62
2006-09-08 07:42:00 51°13.578 2°56.138 3 258 16.8 102960 62
2006-09-08 07:42:04 51°13.578 2°56.138 2.1 301 16.8 102960 62
2006-09-08 07:42:10 51°13.578 2°56.138 2.9 249 16.8 102960 62
2006-09-08 07:42:15 51°13.578 2°56.138 2.4 303 16.8 102960 62
2006-09-08 07:42:20 51°13.579 2°56.138 2.3 245 16.8 102960 62
2006-09-08 07:42:24 51°13.579 2°56.138 1.7 309 16.8 102960 62
2006-09-08 07:42:30 51°13.578 2°56.138 1.8 250 16.8 102960 62
2006-09-08 07:42:35 51°13.578 2°56.138 1 304 16.8 102960 62
2006-09-08 07:42:40 51°13.578 2°56.138 0.8 21 16.8 102960 62
2006-09-08 07:42:44 51°13.578 2°56.138 1.4 59 16.8 102960 62
2006-09-08 07:42:50 51°13.578 2°56.138 1.3 260 16.8 102960 62
2006-09-08 07:42:55 51°13.578 2°56.138 1.3 310 16.8 102960 62
2006-09-08 07:43:00 51°13.578 2°56.138 1.4 256 16.8 102960 62
2006-09-08 07:43:05 51°13.578 2°56.138 1.9 278 16.8 102960 62
2006-09-08 07:43:10 51°13.578 2°56.138 1 261 16.8 102960 62
2006-09-08 07:43:15 51°13.579 2°56.138 0.7 310 16.8 102960 62
2006-09-08 07:43:20 51°13.579 2°56.139 0.8 266 16.8 102960 62
2006-09-08 07:43:25 51°13.579 2°56.139 2.4 303 16.8 102960 62
2006-09-08 07:43:30 51°13.58 2°56.139 2.6 253 16.8 102960 62
2006-09-08 07:43:35 51°13.58 2°56.139 2.3 303 16.8 102960 62
2006-09-08 07:43:40 51°13.581 2°56.14 2.3 21 16.8 102960 63
2006-09-08 07:43:45 51°13.581 2°56.14 2.8 302 16.8 102960 63
2006-09-08 07:43:50 51°13.581 2°56.14 1.5 254 16.8 102960 63
2006-09-08 07:43:55 51°13.582 2°56.14 1.1 309 16.8 102960 63
2006-09-08 07:44:00 51°13.582 2°56.141 1.7 29 16.8 102960 63
2006-09-08 07:44:05 51°13.582 2°56.141 1.7 302 16.8 102960 63
2006-09-08 07:44:10 51°13.583 2°56.141 1.4 260 16.8 102960 63
2006-09-08 07:44:15 51°13.583 2°56.141 1.9 303 16.8 102960 63
2006-09-08 07:44:20 51°13.583 2°56.141 2.2 254 16.8 102960 63
2006-09-08 07:44:24 51°13.583 2°56.141 2.5 308 16.8 102960 63
2006-09-08 07:44:30 51°13.584 2°56.141 1.1 28 16.8 102960 63
2006-09-08 07:44:35 51°13.584 2°56.141 2.2 310 16.8 102960 63
2006-09-08 07:44:40 51°13.584 2°56.141 2.1 256 16.8 102960 63
2006-09-08 07:44:44 51°13.584 2°56.141 3.6 307 16.8 102960 63
2006-09-08 07:44:49 51°13.584 2°56.141 3.2 253 16.8 102970 63
2006-09-08 07:44:55 51°13.584 2°56.141 4.3 304 16.8 102970 63
2006-09-08 07:45:00 51°13.584 2°56.141 2.6 263 16.8 102970 63
2006-09-08 07:45:04 51°13.583 2°56.141 4.1 283 16.8 102970 63
2006-09-08 07:45:10 51°13.584 2°56.141 2.8 259 16.8 102960 63
2006-09-08 07:45:15 51°13.584 2°56.14 2.4 307 16.8 102960 63
2006-09-08 07:45:20 51°13.584 2°56.14 1.7 258 16.8 102960 63
2006-09-08 07:45:25 51°13.584 2°56.141 3 308 16.8 102960 63
2006-09-08 07:45:30 51°13.584 2°56.141 2.9 264 16.8 102970 63
2006-09-08 07:45:35 51°13.584 2°56.141 2.2 303 16.8 102970 63
2006-09-08 07:45:40 51°13.584 2°56.141 2.9 267 16.8 102970 63
2006-09-08 07:45:45 51°13.584 2°56.14 1.9 303 16.8 102970 63
2006-09-08 07:45:50 51°13.584 2°56.14 1.4 257 16.8 102970 63
2006-09-08 07:45:55 51°13.584 2°56.14 1.9 306 16.8 102970 63
2006-09-08 07:46:00 51°13.583 2°56.14 3.1 257 16.8 102970 63
2006-09-08 07:46:04 51°13.583 2°56.14 2.6 303 16.8 102970 63
2006-09-08 07:46:10 51°13.583 2°56.141 2 270 16.8 102970 63
2006-09-08 07:46:15 51°13.583 2°56.14 2.3 305 16.8 102970 63
2006-09-08 07:46:20 51°13.583 2°56.14 2.8 260 16.8 102970 63
2006-09-08 07:46:24 51°13.583 2°56.14 3.6 309 16.8 102970 63
2006-09-08 07:46:30 51°13.583 2°56.141 3.3 254 16.8 102970 63
2006-09-08 07:46:35 51°13.583 2°56.141 4.5 303 16.8 102970 63
2006-09-08 07:46:40 51°13.583 2°56.14 3.1 22 16.8 102970 63
2006-09-08 07:46:45 51°13.583 2°56.14 3.3 309 16.8 102970 63
2006-09-08 07:46:50 51°13.583 2°56.14 3.1 253 16.8 102970 63
2006-09-08 07:46:54 51°13.583 2°56.14 3.5 310 16.8 102970 63
2006-09-08 07:47:00 51°13.583 2°56.14 2.7 266 16.8 102970 63
2006-09-08 07:47:05 51°13.583 2°56.14 2.4 284 16.8 102970 63
2006-09-08 07:47:10 51°13.583 2°56.14 2.6 248 16.8 102970 63
2006-09-08 07:47:15 51°13.583 2°56.14 2.5 303 16.8 102970 63
2006-09-08 07:47:20 51°13.583 2°56.14 2.3 250 16.8 102970 63
2006-09-08 07:47:26 51°13.583 2°56.14 1.2 58 16.8 102970 63
2006-09-08 07:47:30 51°13.583 2°56.14 0.9 19 16.8 102970 63
2006-09-08 07:47:35 51°13.583 2°56.14 0.9 310 16.8 102970 63
2006-09-08 07:47:40 51°13.583 2°56.14 1.2 20 16.8 102970 63
2006-09-08 07:47:44 51°13.583 2°56.14 1.3 309 16.8 102970 63
2006-09-08 07:47:50 51°13.583 2°56.14 1.4 267 16.8 102970 63
2006-09-08 07:47:55 51°13.583 2°56.14 2.3 56 16.8 102970 63
2006-09-08 07:48:00 51°13.583 2°56.14 2.4 259 16.8 102970 64
2006-09-08 07:48:05 51°13.583 2°56.14 2.9 278 16.8 102970 64
2006-09-08 07:48:10 51°13.584 2°56.14 1.9 270 16.8 102970 64
2006-09-08 07:48:15 51°13.584 2°56.139 2 303 16.8 102970 64
2006-09-08 07:48:20 51°13.584 2°56.139 2 267 16.8 102970 64
2006-09-08 07:48:24 51°13.584 2°56.139 2.1 305 16.8 102970 64
2006-09-08 07:48:30 51°13.581 2°56.137 2.3 261 16.8 102970 64
2006-09-08 07:48:35 51°13.58 2°56.136 2.7 311 16.8 102970 64
2006-09-08 07:48:40 51°13.58 2°56.136 3.3 264 16.8 102970 64
2006-09-08 07:48:44 51°13.58 2°56.136 3.6 301 16.8 102970 64
2006-09-08 07:48:50 51°13.58 2°56.136 2.8 261 16.8 102970 64
2006-09-08 07:48:55 51°13.58 2°56.136 3.4 304 16.8 102970 64
2006-09-08 07:49:00 51°13.58 2°56.136 4.5 261 16.8 102970 64
2006-09-08 07:49:05 51°13.58 2°56.136 4.4 308 16.8 102970 64
2006-09-08 07:49:10 51°13.579 2°56.136 3.8 256 16.8 102970 64
2006-09-08 07:49:15 51°13.58 2°56.136 3.3 309 16.8 102970 64
2006-09-08 07:49:20 51°13.58 2°56.136 4.2 260 16.7 102970 64
2006-09-08 07:49:25 51°13.58 2°56.136 4.5 302 16.7 102970 64
2006-09-08 07:49:30 51°13.581 2°56.136 3.3 259 16.8 102970 64
2006-09-08 07:49:35 51°13.581 2°56.137 3.1 306 16.8 102970 64
2006-09-08 07:49:40 51°13.581 2°56.137 2.3 257 16.7 102970 65
2006-09-08 07:49:44 51°13.581 2°56.137 2.2 305 16.7 102970 65
2006-09-08 07:49:50 51°13.582 2°56.138 3.1 21 16.7 102970 65
2006-09-08 07:49:55 51°13.582 2°56.138 2.5 309 16.7 102970 65
2006-09-08 07:50:00 51°13.582 2°56.138 1.7 263 16.7 102970 65
2006-09-08 07:50:05 51°13.582 2°56.138 1.6 284 16.7 102970 65
2006-09-08 07:50:10 51°13.582 2°56.138 2.5 261 16.7 102970 65
2006-09-08 07:50:15 51°13.582 2°56.138 2.9 303 16.7 102970 65
2006-09-08 07:50:20 51°13.581 2°56.138 2.5 25 16.7 102970 65
2006-09-08 07:50:24 51°13.582 2°56.138 3.1 58 16.7 102970 65
2006-09-08 07:50:30 51°13.582 2°56.138 2.4 26 16.7 102970 65
2006-09-08 07:50:35 51°13.582 2°56.138 3.4 303 16.7 102970 65
2006-09-08 07:50:40 51°13.58 2°56.137 2.3 260 16.7 102970 65
2006-09-08 07:50:44 51°13.58 2°56.137 2.3 303 16.7 102970 65
2006-09-08 07:50:50 51°13.579 2°56.137 2.7 255 16.7 102970 65
2006-09-08 07:50:55 51°13.579 2°56.137 2.6 302 16.7 102970 65
2006-09-08 07:51:00 51°13.58 2°56.137 2.9 255 16.7 102980 66
2006-09-08 07:51:04 51°13.58 2°56.137 2 278 16.7 102980 66
2006-09-08 07:51:09 51°13.58 2°56.137 1.5 266 16.7 102970 66
2006-09-08 07:51:14 51°13.58 2°56.137 1.5 303 16.7 102970 66
2006-09-08 07:51:20 51°13.58 2°56.137 1.9 260 16.7 102970 66
2006-09-08 07:51:26 51°13.58 2°56.137 1.6 309 16.7 102970 66
2006-09-08 07:51:30 51°13.579 2°56.136 1.5 265 16.7 102970 66
2006-09-08 07:51:35 51°13.579 2°56.136 1.1 304 16.7 102970 66
2006-09-08 07:51:40 51°13.579 2°56.136 1.5 262 16.7 102970 66
2006-09-08 07:51:45 51°13.579 2°56.136 2.1 305 16.7 102970 66
2006-09-08 07:51:50 51°13.58 2°56.136 1.5 25 16.6 102980 66
2006-09-08 07:51:55 51°13.58 2°56.137 1.1 303 16.6 102980 66
2006-09-08 07:52:00 51°13.58 2°56.136 0.7 254 16.7 102970 66
2006-09-08 07:52:05 51°13.579 2°56.136 1.3 322 16.7 102970 66
2006-09-08 07:52:10 51°13.58 2°56.136 1 331 16.6 102970 66
2006-09-08 07:52:15 51°13.58 2°56.136 0.8 301 16.6 102970 66
2006-09-08 07:52:20 51°13.58 2°56.136 1.5 22 16.6 102970 66
2006-09-08 07:52:24 51°13.58 2°56.136 1.6 300 16.6 102970 66
2006-09-08 07:52:30 51°13.58 2°56.136 1.8 24 16.6 102970 66
2006-09-08 07:52:35 51°13.58 2°56.136 1.9 303 16.6 102970 66
2006-09-08 07:52:40 51°13.58 2°56.136 1.7 25 16.6 102970 67
2006-09-08 07:52:44 51°13.58 2°56.136 1.3 307 16.6 102970 67
2006-09-08 07:52:50 51°13.58 2°56.136 1.8 19 16.6 102970 67
2006-09-08 07:52:55 51°13.579 2°56.136 1.8 303 16.6 102970 67
2006-09-08 07:53:00 51°13.579 2°56.136 1.3 28 16.6 102970 67
2006-09-08 07:53:05 51°13.58 2°56.136 1.7 279 16.6 102970 67
2006-09-08 07:53:10 51°13.58 2°56.136 1.7 253 16.6 102980 67
2006-09-08 07:53:15 51°13.58 2°56.136 1.6 309 16.6 102980 67
2006-09-08 07:53:20 51°13.58 2°56.136 1.8 28 16.6 102980 67
2006-09-08 07:53:25 51°13.58 2°56.136 2 301 16.6 102980 67
2006-09-08 07:53:30 51°13.58 2°56.136 2.2 259 16.6 102970 67
2006-09-08 07:53:35 51°13.58 2°56.136 2 308 16.6 102970 67
2006-09-08 07:53:39 51°13.58 2°56.136 1.4 253 16.6 102980 67
2006-09-08 07:53:45 51°13.58 2°56.136 1.7 308 16.6 102980 67
2006-09-08 07:53:50 51°13.58 2°56.136 1.9 23 16.6 102980 67
2006-09-08 07:53:55 51°13.579 2°56.136 2 55 16.6 102980 67
2006-09-08 07:54:00 51°13.579 2°56.136 1.5 242 16.6 102980 67
2006-09-08 07:54:05 51°13.579 2°56.136 1.5 281 16.6 102980 67
2006-09-08 07:54:10 51°13.579 2°56.136 2.8 254 16.6 102980 67
2006-09-08 07:54:15 51°13.579 2°56.136 2.8 309 16.6 102980 67
2006-09-08 07:54:20 51°13.579 2°56.136 2 22 16.6 102980 67
2006-09-08 07:54:25 51°13.579 2°56.137 1.9 306 16.6 102980 67
2006-09-08 07:54:30 51°13.579 2°56.137 1.6 248 16.6 102970 67
2006-09-08 07:54:35 51°13.578 2°56.137 2.4 308 16.6 102970 67
2006-09-08 07:54:40 51°13.578 2°56.137 2.2 21 16.6 102980 67
2006-09-08 07:54:44 51°13.578 2°56.137 2.3 303 16.6 102980 67
2006-09-08 07:54:50 51°13.578 2°56.137 2.1 254 16.5 102980 67
2006-09-08 07:54:55 51°13.578 2°56.137 2.5 308 16.5 102980 67
2006-09-08 07:55:00 51°13.578 2°56.137 1.9 256 16.5 102980 67
2006-09-08 07:55:05 51°13.578 2°56.137 2.5 285 16.5 102980 67
2006-09-08 07:55:10 51°13.578 2°56.137 1 261 16.5 102980 67
2006-09-08 07:55:15 51°13.578 2°56.137 0.8 303 16.5 102980 67
2006-09-08 07:55:20 51°13.578 2°56.137 1.5 264 16.5 102980 68
2006-09-08 07:55:25 51°13.578 2°56.137 1.8 308 16.5 102980 68
2006-09-08 07:55:30 51°13.578 2°56.137 2.9 260 16.5 102970 68
2006-09-08 07:55:35 51°13.578 2°56.137 2.8 306 16.5 102970 68
2006-09-08 07:55:40 51°13.578 2°56.137 1.8 264 16.5 102970 68
2006-09-08 07:55:45 51°13.578 2°56.137 1.6 307 16.5 102970 68
2006-09-08 07:55:50 51°13.578 2°56.137 3.7 253 16.5 102980 68
2006-09-08 07:55:55 51°13.578 2°56.137 2.4 309 16.5 102980 68
2006-09-08 07:56:00 51°13.578 2°56.137 1.8 22 16.5 102980 68
2006-09-08 07:56:05 51°13.578 2°56.137 2.4 307 16.5 102980 68
2006-09-08 07:56:10 51°13.578 2°56.137 2.2 259 16.5 102980 68
2006-09-08 07:56:15 51°13.578 2°56.137 1.7 302 16.5 102980 68
2006-09-08 07:56:19 51°13.578 2°56.136 1.5 26 16.5 102980 68
2006-09-08 07:56:25 51°13.579 2°56.135 1.5 308 16.5 102980 68
2006-09-08 07:56:30 51°13.579 2°56.135 1.1 316 16.5 102980 68
2006-09-08 07:56:35 51°13.58 2°56.134 0.7 308 16.5 102980 68
2006-09-08 07:56:40 51°13.58 2°56.133 0.9 243 16.5 102980 68
2006-09-08 07:56:44 51°13.58 2°56.133 1.4 302 16.5 102980 68
2006-09-08 07:56:50 51°13.58 2°56.133 2 22 16.5 102970 68
2006-09-08 07:56:55 51°13.58 2°56.132 2.4 309 16.5 102970 68
2006-09-08 07:57:00 51°13.581 2°56.132 2.4 26 16.5 102980 68
2006-09-08 07:57:04 51°13.581 2°56.132 2 277 16.5 102980 68
2006-09-08 07:57:09 51°13.581 2°56.132 1.8 20 16.5 102980 68
2006-09-08 07:57:15 51°13.581 2°56.132 1.8 306 16.5 102980 68
2006-09-08 07:57:20 51°13.58 2°56.132 3.1 247 16.5 102980 68
2006-09-08 07:57:24 51°13.58 2°56.132 2.8 301 16.5 102980 68
2006-09-08 07:57:30 51°13.58 2°56.132 3.2 245 16.5 102980 68
2006-09-08 07:57:35 51°13.58 2°56.132 2.6 306 16.5 102980 68
2006-09-08 07:57:40 51°13.58 2°56.132 2.8 249 16.5 102980 68
2006-09-08 07:57:45 51°13.58 2°56.132 3 304 16.5 102980 68
2006-09-08 07:57:50 51°13.58 2°56.132 2.4 27 16.5 102980 68
2006-09-08 07:57:55 51°13.58 2°56.132 3.4 307 16.5 102980 68
2006-09-08 07:58:00 51°13.581 2°56.133 2.5 241 16.5 102980 68
2006-09-08 07:58:05 51°13.58 2°56.133 2.5 302 16.5 102980 68
2006-09-08 07:58:10 51°13.58 2°56.133 2.8 26 16.5 102980 68
2006-09-08 07:58:15 51°13.581 2°56.133 2.5 301 16.5 102980 68
2006-09-08 07:58:20 51°13.581 2°56.133 2.9 26 16.5 102980 68
2006-09-08 07:58:25 51°13.581 2°56.133 2.4 308 16.5 102980 68
2006-09-08 07:58:30 51°13.581 2°56.134 1.5 28 16.5 102980 68
2006-09-08 07:58:35 51°13.581 2°56.134 2.4 305 16.5 102980 68
2006-09-08 07:58:40 51°13.581 2°56.134 2.7 315 16.5 102980 68
2006-09-08 07:58:44 51°13.581 2°56.134 2.1 304 16.5 102980 68
2006-09-08 07:58:50 51°13.581 2°56.134 2.3 25 16.5 102980 68
2006-09-08 07:58:55 51°13.581 2°56.134 1.7 305 16.5 102980 68
2006-09-08 07:59:00 51°13.581 2°56.134 1.5 20 16.5 102980 68
2006-09-08 07:59:04 51°13.581 2°56.134 1 281 16.5 102980 68
2006-09-08 07:59:10 51°13.581 2°56.134 1.4 247 16.5 102980 68
2006-09-08 07:59:15 51°13.581 2°56.134 1.3 303 16.5 102980 68
2006-09-08 07:59:20 51°13.581 2°56.134 1.7 20 16.4 102980 68
2006-09-08 07:59:25 51°13.581 2°56.134 1.7 302 16.4 102980 68
2006-09-08 07:59:30 51°13.581 2°56.134 2.1 29 16.4 102980 68
2006-09-08 07:59:35 51°13.581 2°56.134 1.7 304 16.4 102980 68
2006-09-08 07:59:40 51°13.581 2°56.134 2.8 19 16.4 102980 69
2006-09-08 07:59:44 51°13.581 2°56.134 2.7 301 16.4 102980 69
2006-09-08 07:59:50 51°13.581 2°56.134 2.4 22 16.4 102980 69
2006-09-08 07:59:55 51°13.581 2°56.134 3 308 16.4 102980 69
2006-09-08 08:00:00 51°13.581 2°56.134 2.6 21 16.4 102980 69
2006-09-08 08:00:04 51°13.581 2°56.134 2.7 301 16.4 102980 69
2006-09-08 08:00:10 51°13.581 2°56.134 2.1 24 16.4 102980 69
2006-09-08 08:00:15 51°13.581 2°56.134 2.5 304 16.4 102980 69
2006-09-08 08:00:20 51°13.581 2°56.134 2.5 27 16.4 102980 69
2006-09-08 08:00:25 51°13.581 2°56.134 2.4 303 16.4 102980 69
2006-09-08 08:00:30 51°13.581 2°56.134 2.6 23 16.4 102980 69
2006-09-08 08:00:35 51°13.581 2°56.134 2 306 16.4 102980 69
2006-09-08 08:00:40 51°13.581 2°56.134 2 22 16.4 102980 69
2006-09-08 08:00:45 51°13.581 2°56.134 2.1 306 16.4 102980 69
2006-09-08 08:00:50 51°13.581 2°56.134 1.8 23 16.4 102980 69
2006-09-08 08:00:55 51°13.581 2°56.134 1.8 308 16.4 102980 69
2006-09-08 08:01:00 51°13.581 2°56.134 1.9 249 16.4 102980 69
2006-09-08 08:01:05 51°13.582 2°56.134 1.6 285 16.4 102980 69
2006-09-08 08:01:10 51°13.582 2°56.134 1.6 23 16.4 102980 69
2006-09-08 08:01:15 51°13.582 2°56.134 1.4 302 16.4 102980 69
2006-09-08 08:01:20 51°13.582 2°56.134 1.3 22 16.4 102980 69
2006-09-08 08:01:25 51°13.582 2°56.134 1.6 303 16.4 102980 69
2006-09-08 08:01:30 51°13.582 2°56.135 1.7 27 16.4 102980 69
2006-09-08 08:01:35 51°13.582 2°56.135 1.4 303 16.4 102980 69
2006-09-08 08:01:40 51°13.582 2°56.135 1.6 20 16.4 102980 69
2006-09-08 08:01:45 51°13.582 2°56.135 1.5 303 16.4 102980 69
2006-09-08 08:01:50 51°13.582 2°56.135 1.3 20 16.4 102980 69
2006-09-08 08:01:55 51°13.582 2°56.135 1.3 307 16.4 102980 69
2006-09-08 08:02:00 51°13.582 2°56.135 1.3 320 16.3 102990 69
2006-09-08 08:02:05 51°13.582 2°56.135 2 301 16.3 102990 69
2006-09-08 08:02:10 51°13.582 2°56.135 2.5 28 16.3 102980 69
2006-09-08 08:02:14 51°13.582 2°56.135 2.4 307 16.3 102980 69
2006-09-08 08:02:19 51°13.582 2°56.136 2.2 316 16.4 102980 69
2006-09-08 08:02:25 51°13.583 2°56.136 2 303 16.4 102980 69
2006-09-08 08:02:29 51°13.583 2°56.136 1.9 21 16.3 102980 69
2006-09-08 08:02:35 51°13.583 2°56.136 2 302 16.3 102980 69
2006-09-08 08:02:40 51°13.583 2°56.136 2.1 319 16.4 102990 69
2006-09-08 08:02:45 51°13.583 2°56.136 2.2 301 16.4 102990 69
2006-09-08 08:02:50 51°13.583 2°56.136 2.1 320 16.3 102980 69
2006-09-08 08:02:55 51°13.583 2°56.136 2 325 16.3 102980 69
2006-09-08 08:03:00 51°13.583 2°56.136 1.8 322 16.4 102990 69
2006-09-08 08:03:04 51°13.583 2°56.136 1.7 279 16.4 102990 69
2006-09-08 08:03:10 51°13.581 2°56.135 1.9 320 16.4 102990 69
2006-09-08 08:03:15 51°13.58 2°56.135 1.8 302 16.4 102990 69
2006-09-08 08:03:20 51°13.58 2°56.135 1.4 26 16.3 102990 69
2006-09-08 08:03:25 51°13.58 2°56.135 1.4 307 16.3 102990 69
2006-09-08 08:03:30 51°13.58 2°56.135 1.8 27 16.3 102990 69
2006-09-08 08:03:35 51°13.58 2°56.135 1.2 301 16.3 102990 69
2006-09-08 08:03:40 51°13.581 2°56.135 1 317 16.3 102990 69
2006-09-08 08:03:44 51°13.581 2°56.135 0.8 308 16.3 102990 69
2006-09-08 08:03:50 51°13.58 2°56.135 0.8 322 16.3 102990 69
2006-09-08 08:03:55 51°13.58 2°56.135 0.9 303 16.3 102990 69
2006-09-08 08:04:00 51°13.581 2°56.135 1.6 318 16.3 102990 69
2006-09-08 08:04:05 51°13.581 2°56.136 1.3 308 16.3 102990 69
2006-09-08 08:04:10 51°13.581 2°56.136 1.2 29 16.3 102990 69
2006-09-08 08:04:15 51°13.581 2°56.136 1.4 307 16.3 102990 69
2006-09-08 08:04:20 51°13.58 2°56.135 1.5 25 16.3 102990 69
2006-09-08 08:04:25 51°13.58 2°56.135 1.2 310 16.3 102990 69
2006-09-08 08:04:29 51°13.58 2°56.135 1.2 26 16.3 102990 70
2006-09-08 08:04:35 51°13.581 2°56.135 1 303 16.3 102990 70
2006-09-08 08:04:40 51°13.581 2°56.136 0.7 22 16.3 102990 70
2006-09-08 08:04:45 51°13.581 2°56.136 0.6 301 16.3 102990 70
2006-09-08 08:04:50 51°13.581 2°56.136 0.7 26 16.3 102990 70
2006-09-08 08:04:55 51°13.581 2°56.136 0.8 309 16.3 102990 70
2006-09-08 08:05:00 51°13.582 2°56.136 1.2 320 16.3 102990 70
2006-09-08 08:05:04 51°13.582 2°56.136 1 280 16.3 102990 70
2006-09-08 08:05:09 51°13.582 2°56.136 1.2 23 16.3 102990 70
2006-09-08 08:05:15 51°13.581 2°56.136 1.6 303 16.3 102990 70
2006-09-08 08:05:20 51°13.581 2°56.136 1.4 22 16.3 102990 70
2006-09-08 08:05:25 51°13.581 2°56.136 1.8 304 16.3 102990 70
2006-09-08 08:05:30 51°13.581 2°56.136 1.6 326 16.4 102990 70
2006-09-08 08:05:35 51°13.581 2°56.136 1.6 304 16.4 102990 70
2006-09-08 08:05:40 51°13.581 2°56.135 1.6 320 16.4 102990 70
2006-09-08 08:05:45 51°13.581 2°56.135 1.7 308 16.4 102990 70
2006-09-08 08:05:50 51°13.582 2°56.136 2.1 323 16.4 102990 70
2006-09-08 08:05:55 51°13.582 2°56.136 1.7 303 16.4 102990 70
2006-09-08 08:06:00 51°13.582 2°56.136 1.5 323 16.4 102990 70
2006-09-08 08:06:05 51°13.582 2°56.136 1.5 330 16.4 102990 70
2006-09-08 08:06:10 51°13.582 2°56.135 1.5 327 16.4 102990 70
2006-09-08 08:06:15 51°13.582 2°56.135 1 330 16.4 102990 70
2006-09-08 08:06:20 51°13.582 2°56.135 1.1 321 16.4 102990 70
2006-09-08 08:06:25 51°13.582 2°56.135 1.5 308 16.4 102990 70
2006-09-08 08:06:30 51°13.582 2°56.135 1.4 317 16.4 102990 70
2006-09-08 08:06:35 51°13.582 2°56.135 1.4 305 16.4 102990 70
2006-09-08 08:06:40 51°13.582 2°56.135 1.4 323 16.4 102990 70
2006-09-08 08:06:45 51°13.582 2°56.135 1.6 321 16.4 102990 70
2006-09-08 08:06:50 51°13.582 2°56.136 1.6 325 16.4 102990 70
2006-09-08 08:06:55 51°13.582 2°56.136 1.6 305 16.4 102990 70
2006-09-08 08:07:00 51°13.583 2°56.136 1.9 328 16.4 102990 70
2006-09-08 08:07:04 51°13.582 2°56.136 1.9 281 16.4 102990 70
2006-09-08 08:07:10 51°13.582 2°56.136 1.7 326 16.4 102990 70
2006-09-08 08:07:15 51°13.582 2°56.136 1.9 304 16.4 102990 70
2006-09-08 08:07:20 51°13.582 2°56.136 1.5 324 16.4 103000 70
2006-09-08 08:07:25 51°13.582 2°56.136 2.2 328 16.4 103000 70
2006-09-08 08:07:30 51°13.582 2°56.136 1.9 328 16.4 102990 70
2006-09-08 08:07:35 51°13.582 2°56.136 2.3 309 16.4 102990 70
2006-09-08 08:07:40 51°13.582 2°56.136 2.3 26 16.4 102990 70
2006-09-08 08:07:44 51°13.582 2°56.136 2.3 306 16.4 102990 70
2006-09-08 08:07:49 51°13.582 2°56.136 2.3 322 16.4 102990 70
2006-09-08 08:07:55 51°13.582 2°56.136 2.3 304 16.4 102990 70
2006-09-08 08:08:00 51°13.582 2°56.136 2.3 318 16.4 102990 70
2006-09-08 08:08:05 51°13.582 2°56.136 1.8 281 16.4 102990 70
2006-09-08 08:08:09 51°13.582 2°56.136 2.2 324 16.4 102990 70
2006-09-08 08:08:15 51°13.582 2°56.136 1.9 326 16.4 102990 70
2006-09-08 08:08:20 51°13.582 2°56.136 2 326 16.4 102990 70
2006-09-08 08:08:25 51°13.582 2°56.136 2.1 328 16.4 102990 70
2006-09-08 08:08:29 51°13.583 2°56.136 2.4 325 16.4 102990 70
2006-09-08 08:08:35 51°13.583 2°56.136 2.1 324 16.4 102990 70
2006-09-08 08:08:40 51°13.583 2°56.136 2.1 322 16.4 102990 70
2006-09-08 08:08:45 51°13.583 2°56.136 2.2 307 16.4 102990 70
2006-09-08 08:08:50 51°13.583 2°56.136 2.2 319 16.4 102990 70
2006-09-08 08:08:55 51°13.583 2°56.136 2 323 16.4 102990 70
2006-09-08 08:09:00 51°13.583 2°56.136 2 321 16.4 102990 70
2006-09-08 08:09:05 51°13.583 2°56.136 2.2 280 16.4 102990 70
2006-09-08 08:09:10 51°13.583 2°56.136 2.2 321 16.4 102990 70
2006-09-08 08:09:15 51°13.583 2°56.136 2.3 302 16.4 102990 70
2006-09-08 08:09:20 51°13.584 2°56.136 2.3 321 16.4 102990 70
2006-09-08 08:09:25 51°13.584 2°56.136 2.4 303 16.4 102990 70
2006-09-08 08:09:30 51°13.584 2°56.136 2.3 317 16.4 102990 70
2006-09-08 08:09:35 51°13.584 2°56.136 2.4 308 16.4 102990 70
2006-09-08 08:09:40 51°13.584 2°56.136 2.3 315 16.3 102990 70
2006-09-08 08:09:45 51°13.584 2°56.136 2.2 307 16.3 102990 70
2006-09-08 08:09:50 51°13.584 2°56.136 2.2 320 16.4 102990 70
2006-09-08 08:09:55 51°13.584 2°56.136 2.2 307 16.4 102990 70
2006-09-08 08:10:00 51°13.584 2°56.136 2.2 318 16.3 102990 71
2006-09-08 08:10:04 51°13.583 2°56.136 2 278 16.3 102990 71
2006-09-08 08:10:10 51°13.583 2°56.136 2 316 16.3 102990 71
2006-09-08 08:10:15 51°13.583 2°56.136 2.1 303 16.3 102990 71
2006-09-08 08:10:20 51°13.583 2°56.136 1.9 324 16.3 102990 71
2006-09-08 08:10:25 51°13.583 2°56.136 2.1 309 16.3 102990 71
2006-09-08 08:10:30 51°13.583 2°56.136 2.1 21 16.3 102990 71
2006-09-08 08:10:35 51°13.583 2°56.136 2.1 301 16.3 102990 71
2006-09-08 08:10:40 51°13.583 2°56.136 1.9 20 16.3 102990 71
2006-09-08 08:10:44 51°13.583 2°56.136 1.7 309 16.3 102990 71
2006-09-08 08:10:49 51°13.583 2°56.136 2 322 16.3 102990 71
2006-09-08 08:10:55 51°13.582 2°56.135 1.9 327 16.3 102990 71
2006-09-08 08:11:00 51°13.581 2°56.135 1.7 326 16.3 102990 71
2006-09-08 08:11:05 51°13.581 2°56.135 1.7 321 16.3 102990 71
2006-09-08 08:11:10 51°13.581 2°56.135 1.5 318 16.3 102990 71
2006-09-08 08:11:15 51°13.581 2°56.135 1.6 324 16.3 102990 71
2006-09-08 08:11:20 51°13.581 2°56.135 1.6 321 16.3 102990 71
2006-09-08 08:11:25 51°13.581 2°56.135 1.9 308 16.3 102990 71
2006-09-08 08:11:30 51°13.581 2°56.135 1.4 317 16.3 102990 71
2006-09-08 08:11:35 51°13.581 2°56.135 1.4 308 16.3 102990 71
2006-09-08 08:11:40 51°13.581 2°56.135 1.5 319 16.3 102990 71
2006-09-08 08:11:45 51°13.581 2°56.135 1.4 305 16.3 102990 71
2006-09-08 08:11:50 51°13.581 2°56.135 1.7 320 16.3 102990 71
2006-09-08 08:11:55 51°13.581 2°56.135 1.9 308 16.3 102990 71
2006-09-08 08:12:00 51°13.581 2°56.135 2.3 325 16.3 102990 71
2006-09-08 08:12:04 51°13.581 2°56.135 2.2 283 16.3 102990 71
2006-09-08 08:12:10 51°13.581 2°56.135 2 26 16.3 102990 71
2006-09-08 08:12:15 51°13.581 2°56.135 2.2 301 16.3 102990 71
2006-09-08 08:12:20 51°13.581 2°56.136 2.1 315 16.4 102990 71
2006-09-08 08:12:25 51°13.581 2°56.136 1.6 323 16.4 102990 71
2006-09-08 08:12:30 51°13.581 2°56.136 1.8 326 16.4 102990 72
2006-09-08 08:12:35 51°13.581 2°56.136 1.9 301 16.4 102990 72
2006-09-08 08:12:40 51°13.581 2°56.136 1.8 326 16.4 102990 72
2006-09-08 08:12:44 51°13.581 2°56.136 2.1 303 16.4 102990 72
2006-09-08 08:12:49 51°13.581 2°56.136 2 323 16.4 102990 72
2006-09-08 08:12:55 51°13.581 2°56.136 2 321 16.4 102990 72
2006-09-08 08:13:00 51°13.581 2°56.136 2.2 320 16.5 102990 72
2006-09-08 08:13:06 51°13.581 2°56.136 2.4 309 16.5 102990 72
2006-09-08 08:13:10 51°13.581 2°56.136 2.3 316 16.5 102990 72
2006-09-08 08:13:15 51°13.581 2°56.136 2.1 307 16.5 102990 72
2006-09-08 08:13:20 51°13.581 2°56.136 2.2 323 16.5 102990 72
2006-09-08 08:13:25 51°13.581 2°56.136 1.6 307 16.5 102990 72
2006-09-08 08:13:30 51°13.581 2°56.136 1.9 321 16.5 102990 72
2006-09-08 08:13:35 51°13.582 2°56.136 2 303 16.5 102990 72
2006-09-08 08:13:40 51°13.582 2°56.136 2.1 319 16.5 102990 71
2006-09-08 08:13:44 51°13.582 2°56.136 2 302 16.5 102990 71
2006-09-08 08:13:50 51°13.582 2°56.137 1.5 318 16.5 102990 71
2006-09-08 08:13:55 51°13.581 2°56.136 1.7 323 16.5 102990 71
2006-09-08 08:14:00 51°13.58 2°56.136 1.6 320 16.5 102990 71
2006-09-08 08:14:04 51°13.58 2°56.135 1.4 286 16.5 102990 71
2006-09-08 08:14:10 51°13.58 2°56.135 1.3 321 16.5 102990 71
2006-09-08 08:14:15 51°13.58 2°56.135 1.4 308 16.5 102990 71
2006-09-08 08:14:20 51°13.58 2°56.135 1.4 21 16.5 102990 71
2006-09-08 08:14:25 51°13.58 2°56.135 1.3 323 16.5 102990 71
2006-09-08 08:14:30 51°13.58 2°56.135 1.4 328 16.5 102990 71
2006-09-08 08:14:35 51°13.58 2°56.135 1.6 302 16.5 102990 71
2006-09-08 08:14:40 51°13.58 2°56.135 1.5 326 16.5 102990 71
2006-09-08 08:14:45 51°13.58 2°56.135 1.7 302 16.5 102990 71
2006-09-08 08:14:50 51°13.58 2°56.135 2 318 16.6 102990 71
2006-09-08 08:14:54 51°13.58 2°56.135 1.7 305 16.6 102990 71
2006-09-08 08:15:00 51°13.58 2°56.136 1.6 22 16.6 102990 71
2006-09-08 08:15:05 51°13.58 2°56.136 1.3 302 16.6 102990 71
2006-09-08 08:15:10 51°13.58 2°56.136 1.8 22 16.6 102990 72
2006-09-08 08:15:15 51°13.58 2°56.136 1.5 310 16.6 102990 72
2006-09-08 08:15:20 51°13.58 2°56.136 1.4 243 16.6 102990 72
2006-09-08 08:15:25 51°13.58 2°56.136 1.7 310 16.6 102990 72
2006-09-08 08:15:30 51°13.58 2°56.136 1.7 28 16.7 102990 72
2006-09-08 08:15:35 51°13.58 2°56.136 1.6 301 16.7 102990 72
2006-09-08 08:15:40 51°13.58 2°56.136 2 317 16.7 102990 72
2006-09-08 08:15:45 51°13.58 2°56.136 2.4 309 16.7 102990 72
2006-09-08 08:15:50 51°13.58 2°56.135 2.3 21 16.7 102990 72
2006-09-08 08:15:55 51°13.58 2°56.135 1.4 308 16.7 102990 72
2006-09-08 08:16:00 51°13.58 2°56.136 1.9 27 16.7 102990 71
2006-09-08 08:16:03 51°13.58 2°56.136 1.4 283 16.7 102990 71
2006-09-08 08:16:10 51°13.58 2°56.136 1.7 21 16.8 102990 71
2006-09-08 08:16:15 51°13.58 2°56.136 1.2 309 16.8 102990 71
2006-09-08 08:16:20 51°13.58 2°56.136 1 321 16.8 102990 71
2006-09-08 08:16:24 51°13.58 2°56.136 1.3 305 16.8 102990 71
2006-09-08 08:16:30 51°13.58 2°56.136 2.2 28 16.8 102990 71
2006-09-08 08:16:35 51°13.58 2°56.136 1.7 308 16.8 102990 71
2006-09-08 08:16:40 51°13.58 2°56.136 1.6 20 16.8 103000 71
2006-09-08 08:16:45 51°13.58 2°56.136 1.6 323 16.8 103000 71
2006-09-08 08:16:50 51°13.58 2°56.136 2.3 317 16.8 102990 71
2006-09-08 08:16:54 51°13.58 2°56.136 1.8 306 16.8 102990 71
2006-09-08 08:16:59 51°13.58 2°56.136 1.7 319 16.9 102990 71
2006-09-08 08:17:05 51°13.58 2°56.136 2.4 306 16.9 102990 71
2006-09-08 08:17:10 51°13.58 2°56.136 2.4 29 16.9 102990 71
2006-09-08 08:17:15 51°13.58 2°56.136 2.6 305 16.9 102990 71
2006-09-08 08:17:20 51°13.58 2°56.136 2.6 28 16.9 102990 71
2006-09-08 08:17:25 51°13.58 2°56.136 1.7 307 16.9 102990 71
2006-09-08 08:17:30 51°13.58 2°56.136 2.3 317 16.9 102990 70
2006-09-08 08:17:35 51°13.58 2°56.136 2.2 310 16.9 102990 70
2006-09-08 08:17:40 51°13.58 2°56.136 2.1 26 16.9 102990 70
2006-09-08 08:17:45 51°13.58 2°56.136 2.3 303 16.9 102990 70
2006-09-08 08:17:49 51°13.58 2°56.136 2.2 321 16.9 102990 70
2006-09-08 08:17:55 51°13.58 2°56.136 1.6 302 16.9 102990 70
2006-09-08 08:18:00 51°13.58 2°56.136 1.5 337 17 102990 70
2006-09-08 08:18:05 51°13.58 2°56.136 1.5 277 17 102990 70
2006-09-08 08:18:08 51°13.58 2°56.136 2 323 17 102990 70
2006-09-08 08:18:15 51°13.568 2°56.132 2.1 307 17 102990 70
2006-09-08 08:18:20 51°13.574 2°56.128 2 27 17 102990 70
2006-09-08 08:18:24 51°13.576 2°56.126 2.4 301 17 102990 70
2006-09-08 08:18:30 51°13.575 2°56.135 2.1 22 17.1 103000 70
2006-09-08 08:18:35 51°13.575 2°56.134 2 303 17.1 103000 70
2006-09-08 08:18:40 51°13.576 2°56.134 1.4 23 17.1 102990 70
2006-09-08 08:18:45 51°13.577 2°56.133 1.7 301 17.1 102990 70
2006-09-08 08:18:50 51°13.577 2°56.133 2 320 17.1 103000 70
2006-09-08 08:18:55 51°13.577 2°56.133 1.8 302 17.1 103000 70
2006-09-08 08:19:00 51°13.578 2°56.133 1.6 20 17.2 103000 70
2006-09-08 08:19:04 51°13.578 2°56.133 1.9 302 17.2 103000 70
2006-09-08 08:19:10 51°13.578 2°56.133 1.9 28 17.2 103000 70
2006-09-08 08:19:15 51°13.579 2°56.133 2.2 308 17.2 103000 70
2006-09-08 08:19:20 51°13.578 2°56.134 2.4 324 17.2 103000 70
2006-09-08 08:19:25 51°13.578 2°56.134 3.4 301 17.2 103000 70
2006-09-08 08:19:30 51°13.578 2°56.134 3.1 322 17.2 103000 70
2006-09-08 08:19:35 51°13.578 2°56.135 3.1 305 17.2 103000 70
2006-09-08 08:19:40 51°13.578 2°56.135 2.7 323 17.3 102990 70
2006-09-08 08:19:44 51°13.579 2°56.135 2.8 330 17.3 102990 70
2006-09-08 08:19:49 51°13.578 2°56.135 3.1 331 17.3 103000 70
2006-09-08 08:19:55 51°13.578 2°56.135 2.8 301 17.3 103000 70
2006-09-08 08:20:00 51°13.578 2°56.135 3 325 17.3 102990 70
2006-09-08 08:20:05 51°13.578 2°56.135 2.9 284 17.3 102990 70
2006-09-08 08:20:10 51°13.579 2°56.135 3 323 17.3 103000 70
2006-09-08 08:20:15 51°13.579 2°56.135 3.7 307 17.3 103000 70
2006-09-08 08:20:20 51°13.579 2°56.135 3.5 327 17.4 103000 70
2006-09-08 08:20:25 51°13.58 2°56.135 3.2 302 17.4 103000 70
2006-09-08 08:20:30 51°13.58 2°56.135 3 323 17.4 102990 69
2006-09-08 08:20:35 51°13.58 2°56.135 3 304 17.4 102990 69
2006-09-08 08:20:40 51°13.58 2°56.136 2.3 320 17.4 103000 69
2006-09-08 08:20:45 51°13.58 2°56.136 2.6 329 17.4 103000 69
2006-09-08 08:20:50 51°13.58 2°56.136 2.9 322 17.4 102990 69
2006-09-08 08:20:55 51°13.58 2°56.136 3.4 304 17.4 102990 69
2006-09-08 08:21:00 51°13.581 2°56.136 3.4 323 17.4 103000 69
2006-09-08 08:21:04 51°13.581 2°56.136 3.3 303 17.4 103000 69
2006-09-08 08:21:10 51°13.581 2°56.136 3.7 315 17.4 102990 69
2006-09-08 08:21:15 51°13.58 2°56.136 3.3 306 17.4 102990 69
2006-09-08 08:21:20 51°13.58 2°56.136 3.8 323 17.4 103000 69
2006-09-08 08:21:25 51°13.58 2°56.136 3.5 303 17.4 103000 69
2006-09-08 08:21:30 51°13.58 2°56.136 3.3 321 17.4 103000 68
2006-09-08 08:21:35 51°13.58 2°56.136 3 324 17.4 103000 68
2006-09-08 08:21:40 51°13.58 2°56.136 3.2 325 17.4 103000 68
2006-09-08 08:21:44 51°13.58 2°56.136 3.1 329 17.4 103000 68
2006-09-08 08:21:49 51°13.58 2°56.136 3.3 329 17.4 103000 68
2006-09-08 08:21:55 51°13.58 2°56.136 3.1 326 17.4 103000 68
2006-09-08 08:22:00 51°13.58 2°56.136 3 326 17.4 103000 68
2006-09-08 08:22:05 51°13.58 2°56.136 2.9 283 17.4 103000 68
2006-09-08 08:22:10 51°13.58 2°56.136 2.9 326 17.4 103000 68
2006-09-08 08:22:15 51°13.58 2°56.136 3.2 326 17.4 103000 68
2006-09-08 08:22:20 51°13.58 2°56.136 3.2 329 17.4 103000 68
2006-09-08 08:22:25 51°13.58 2°56.136 2.9 330 17.4 103000 68
2006-09-08 08:22:30 51°13.58 2°56.136 3.1 328 17.4 102990 68
2006-09-08 08:22:35 51°13.58 2°56.136 3.2 326 17.4 102990 68
2006-09-08 08:22:40 51°13.58 2°56.136 1.6 325 17.4 103000 68
2006-09-08 08:22:45 51°13.58 2°56.136 2.9 325 17.4 103000 68
2006-09-08 08:22:50 51°13.58 2°56.136 2.8 325 17.4 102990 68
2006-09-08 08:22:55 51°13.58 2°56.136 2.7 304 17.4 102990 68
2006-09-08 08:23:00 51°13.58 2°56.136 2.7 21 17.4 103000 68
2006-09-08 08:23:05 51°13.58 2°56.136 2.9 300 17.4 103000 68
2006-09-08 08:23:10 51°13.58 2°56.136 3 26 17.4 103000 68
2006-09-08 08:23:15 51°13.58 2°56.136 3.1 303 17.4 103000 68
2006-09-08 08:23:20 51°13.58 2°56.136 2.4 318 17.4 103000 68
2006-09-08 08:23:25 51°13.58 2°56.136 2.2 324 17.4 103000 68
2006-09-08 08:23:30 51°13.58 2°56.136 2.3 320 17.4 102990 68
2006-09-08 08:23:35 51°13.58 2°56.136 2.5 303 17.4 102990 68
2006-09-08 08:23:40 51°13.58 2°56.136 2.3 328 17.4 102990 68
2006-09-08 08:23:45 51°13.58 2°56.137 2.5 331 17.4 102990 68
2006-09-08 08:23:50 51°13.581 2°56.137 2.5 326 17.4 103000 68
2006-09-08 08:23:55 51°13.581 2°56.137 3.4 331 17.4 103000 68
2006-09-08 08:24:00 51°13.581 2°56.137 3.3 326 17.4 102990 68
2006-09-08 08:24:04 51°13.581 2°56.137 3.2 284 17.4 102990 68
2006-09-08 08:24:09 51°13.581 2°56.137 3.7 320 17.4 103000 68
2006-09-08 08:24:15 51°13.581 2°56.137 4.1 307 17.4 103000 68
2006-09-08 08:24:20 51°13.581 2°56.137 4.4 324 17.4 102990 68
2006-09-08 08:24:25 51°13.58 2°56.137 4.3 308 17.4 102990 68
2006-09-08 08:24:29 51°13.58 2°56.137 3.8 320 17.4 102990 68
2006-09-08 08:24:35 51°13.58 2°56.137 3.7 322 17.4 102990 68
2006-09-08 08:24:40 51°13.58 2°56.137 4 326 17.4 102990 68